Home   Weather   Witten   Past weeks

Flag for Germany Past Weather in Witten, North Rhine-Westphalia, Germany — Yesterday and Last 2 Weeks

Now
55 °F

Sprinkles. Broken clouds.


Feels Like: 55 °F
Forecast: 56 / 62 °F
Wind: 3 mph from North

Location: Dortmund / Wickede

Current Time: Jul 24, 2017 at 8:50:49 pm

Latest Report: Jul 24, 2017 at 8:20 pm


Visibility: N/A

Pressure: 29.80 "Hg

Humidity: 88%

Dew Point: 52 °F

Location of WittenLocation

Past Weather in Witten — Graph

°F

Witten Temperature Yesterday

Maximum temperature yesterday: 68 °F (at 2:20 pm)
Minimum temperature yesterday: 57 °F (at 5:20 am)
Average temperature yesterday: 62 °F

High & Low Weather Summary for the Past Weeks

 TemperatureHumidityPressure
High90 °F (Jul 19, 2:50 pm)100% (Jul 24, 11:50 am)30.21 "Hg (Jul 24, 11:50 am)
Low39 °F (Jul 24, 11:50 am)29% (Jul 19, 2:50 pm)29.68 "Hg (Jul 12, 1:20 pm)
Average65 °F64%29.96 "Hg
* Reported Jul 9 7:20 pm — Jul 24 7:20 pm, Witten. Weather by CustomWeather, © 2017

Note: Actual official high and low records may vary slightly from our data, if they occured in-between our weather recording intervals... More about our weather records

Advertising

Witten Weather History for the Previous 24 Hours

Scroll right to see more
 ConditionsComfort  
Time TempWeatherWind HumidityBarometerVisibility
7:20 pm
Mon, Jul 24
59 °FScattered showers. Broken clouds.5 mph77%29.80 "HgN/A
6:50 pm57 °FScattered showers. Broken clouds.6 mph82%29.80 "HgN/A
6:20 pm59 °FScattered showers. Broken clouds.2 mph77%29.80 "HgN/A
5:50 pm61 °FScattered showers. Broken clouds.3 mph77%29.77 "HgN/A
5:20 pm59 °FSprinkles. Scattered clouds.2 mph82%29.80 "HgN/A
4:50 pm59 °FSprinkles. Broken clouds.2 mph77%29.80 "HgN/A
4:20 pm61 °FScattered clouds.5 mph72%29.77 "HgN/A
3:50 pm61 °FPartly sunny.3 mph68%29.77 "HgN/A
3:20 pm61 °FScattered showers. Partly sunny.3 mph72%29.77 "HgN/A
2:50 pm59 °FPartly sunny.6 mph77%29.77 "HgN/A
2:20 pm61 °FPartly sunny.7 mph72%29.77 "HgN/A
1:50 pm61 °FPartly sunny.6 mph77%29.77 "HgN/A
1:20 pm61 °FPartly sunny.3 mph72%29.77 "HgN/A
12:20 pm57 °FScattered clouds.3 mph82%29.80 "HgN/A
11:50 am39 °FScattered clouds.2 mph100%29.80 "HgN/A
11:20 am57 °FLight rain. Broken clouds.2 mph82%29.80 "HgN/A
10:50 am57 °FLight rain. Broken clouds.3 mph82%29.80 "HgN/A
10:20 am55 °FLight rain. Broken clouds.5 mph88%29.80 "HgN/A
9:50 am55 °FLight rain. Partly sunny.5 mph88%29.80 "HgN/A
9:20 am55 °FLight rain. Partly sunny.6 mph88%29.80 "HgN/A
8:50 am55 °FLight rain. Partly sunny.5 mph88%29.80 "HgN/A
8:20 am55 °FLight rain. Partly sunny.5 mph88%29.80 "HgN/A
7:50 am55 °FLight rain. Clear.5 mph88%29.80 "HgN/A
7:20 am55 °FLight rain. Clear.5 mph88%29.80 "HgN/A
6:50 am55 °FLight rain. Clear.7 mph88%29.80 "HgN/A
6:20 am55 °FScattered clouds.7 mph88%29.80 "HgN/A
5:20 am57 °FClear.5 mph77%29.83 "Hg10 mi
9:50 pm
Sun, Jul 23
61 °FClear.10 mph63%29.92 "Hg10 mi
9:20 pm61 °FSunny.12 mph63%29.92 "Hg10 mi
8:50 pm61 °FSunny.13 mph68%29.92 "Hg10 mi
8:20 pm63 °FPassing clouds.8 mph68%29.92 "HgN/A
Weather by CustomWeather, © 2017

See weather overviewHow to use our weather pages